Change the Weather History Date:

Tuesday, December 28, 2010

  Actual Average Record
Temperature  
Mean Temperature 71 °F -  
Max Temperature 79 °F 80 °F 86 °F (2013)
Min Temperature 63 °F 63 °F 62 °F (1999)
Cooling Degree Days 6    
Growing Degree Days 21 (Base 50)    
Moisture  
Dew Point 60 °F    
Average Humidity 73    
Maximum Humidity 94    
Minimum Humidity 57    
Precipitation  
Precipitation 0.00 in 0.01 in - ()
Sea Level Pressure  
Sea Level Pressure 29.95 in    
Wind  
Wind Speed 11 mph ()    
Max Wind Speed 20 mph    
Max Gust Speed 31 mph    
Visibility 7.2 miles    
Events      
Averages and records for this station are not official NWS values.
T = Trace of Precipitation, MM = Missing Value Source: Averaged Metar Reports

Daily Weather History Graph

Daily Weather History Graph

Search for Another Location

Airport or City:

Trip Planner

Search our weather history database for the weather conditions in past years. The results will help you decide how hot, cold, wet, or windy it might be!

Date:

Astronomy

Dec. 28, 2010 Rise Set
Actual Time 5:52 AM CST 5:24 PM CST
Civil Twilight 5:29 AM CST 5:47 PM CST
Nautical Twilight 5:02 AM CST 6:14 PM CST
Astronomical Twilight 4:36 AM CST 6:40 PM CST
Moon No Moon Rise 11:45 AM CST (12/28)
Length of Visible Light 12h 18m
Length of Day
11h 32m
Last Quarter, 44% of the Moon is Illuminated
Dec 28
Last Quarter
Jan 4
New
Jan 12
First Quarter
Jan 19
Full
Jan 26
Last Quarter

Hourly Weather History & Observations

Time (CST) Temp. Dew Point Humidity Pressure Visibility Wind Dir Wind Speed Gust Speed Precip Events Conditions
12:00 AM 66 °F 59 °F 72% 29.86 in 12 mi East 11.5 mph - -  
12:00 AM 66.2 °F 59.0 °F 78% 30.02 in 6.2 mi East 11.5 mph 25.3 mph N/A   Unknown
1:00 AM 66.2 °F 59.0 °F 78% 29.99 in 6.2 mi ESE 16.1 mph 31.1 mph N/A   Unknown
2:00 AM 66.2 °F 59.0 °F 78% 29.96 in 6.2 mi ESE 19.6 mph 31.1 mph N/A   Unknown
3:00 AM 66 °F 59 °F 72% 29.81 in 12 mi ESE 18.4 mph - -  
3:00 AM 66.2 °F 59.0 °F 78% 29.95 in 6.2 mi ESE 18.4 mph 29.9 mph N/A   Unknown
4:00 AM 66.2 °F 59.0 °F 78% 29.96 in 6.2 mi ESE 16.1 mph 27.6 mph N/A   Unknown
5:00 AM 66.2 °F 59.0 °F 78% 29.97 in 6.2 mi ESE 15.0 mph 26.5 mph N/A   Unknown
6:00 AM 64 °F 59 °F 79% 29.89 in 12 mi SE 13.8 mph - -   Scattered Clouds
6:00 AM 64.4 °F 59.0 °F 83% 29.98 in 6.2 mi SE 13.8 mph - N/A   Partly Cloudy
8:00 AM 69.8 °F 59.0 °F 68% 30.04 in 6.2 mi ESE 17.3 mph - N/A   Scattered Clouds
9:00 AM 75.2 °F 59.0 °F 57% 30.04 in 6.2 mi NE 8.1 mph - N/A   Partly Cloudy
10:00 AM 73.4 °F 60.8 °F 65% 30.04 in 6.2 mi ESE 17.3 mph - N/A   Partly Cloudy
11:00 AM 75.2 °F 60.8 °F 61% 30.01 in 6.2 mi ESE 11.5 mph - N/A   Partly Cloudy
12:00 PM 77.0 °F 60.8 °F 57% 29.98 in 6.2 mi SE 15.0 mph 27.6 mph N/A   Scattered Clouds
1:00 PM 77.0 °F 60.8 °F 57% 29.96 in 6.2 mi ESE 13.8 mph 27.6 mph N/A   Scattered Clouds
2:00 PM 75.2 °F 60.8 °F 61% 29.96 in 6.2 mi East 9.2 mph - N/A   Scattered Clouds
3:00 PM 73 °F 61 °F 57% 29.80 in 9 mi SE 8.1 mph - -  
3:00 PM 73.4 °F 60.8 °F 65% 29.95 in 6.2 mi SE 8.1 mph - N/A   Scattered Clouds
4:00 PM 71.6 °F 60.8 °F 69% 29.95 in 6.2 mi East 5.8 mph - N/A   Scattered Clouds
5:00 PM 71.6 °F 60.8 °F 69% 29.96 in 6.2 mi SE 5.8 mph - N/A   Scattered Clouds
6:00 PM 68 °F 59 °F 65% 29.84 in 9 mi SE 6.9 mph - -   Scattered Clouds
6:00 PM 68.0 °F 59.0 °F 73% 29.96 in 6.2 mi SE 6.9 mph - N/A   Scattered Clouds
7:00 PM 68.0 °F 60.8 °F 78% 29.97 in 6.2 mi South 4.6 mph - N/A   Scattered Clouds
8:00 PM 66.2 °F 60.8 °F 83% 29.98 in 6.2 mi SE 6.9 mph - N/A   Unknown
9:00 PM 66 °F 64 °F 93% 29.85 in 12 mi ESE 5.8 mph - -   Partly Cloudy
9:00 PM 66.2 °F 64.4 °F 94% 30.00 in 6.2 mi ESE 5.8 mph - N/A   Partly Cloudy
10:00 PM 66.2 °F 60.8 °F 83% 29.99 in 6.2 mi ENE 3.5 mph - N/A   Scattered Clouds
11:00 PM 66.2 °F 59.0 °F 78% 29.98 in 6.2 mi Calm Calm - N/A   Partly Cloudy